Flag for U.S.A. Weather past 2 weeks in Honolulu, Hawaii, U.S.A.

Now
74 °F

Light rain. Passing clouds.


Feels Like: 76 °F
Forecast: 69 / 80 °F
Wind: 13 mph from Northeast

Location: Honolulu International Airport


UV Index: 7 (High)

Visibility: 10 mi


Pressure: 30.11 "Hg

Humidity: 71%

Dew point: 64 °F

Location of HonoluluLocation

Historic Weather in Honolulu

°F

Honolulu temperature yesterday

Maximum temperature yesterday: 81 °F (at 2:53 PM)
Minimum temperature yesterday: 72 °F (at 3:53 AM)
Average temperature yesterday: 75 °F

Past Weeks' High & Low Weather Summary

 TemperatureHumidityPressure
High84 °F (Apr 2, 12:53 PM)90% (Apr 12, 5:53 AM)30.18 "Hg (Apr 12, 5:53 AM)
Low67 °F (Apr 6, 5:53 AM)39% (Apr 8, 11:53 AM)29.94 "Hg (Apr 5, 3:53 PM)
Average75 °F61%30.07 "Hg
* Reported Apr 1 7:53 PM — Apr 16 7:53 PM, Honolulu, Weather by CustomWeather, © 2014

Note: Actual official high and low records may vary slightly from our data, if they occured in-between our weather recording intervals... More about our weather records

Advertising

Historic Weather Conditions — Data for Previous 24 hours

 ConditionsComfort  
Time TempWeatherWind HumidityBarometerVisibility
7:53 PM
Apr 16
75 °FPassing clouds.9 mph66%30.09 "Hg10 mi
6:53 PM76 °FPassing clouds.13 mph64%30.08 "Hg10 mi
5:53 PM79 °FScattered clouds.15 mph56%30.06 "Hg10 mi
4:53 PM81 °FScattered clouds.12 mph53%30.04 "Hg10 mi
3:53 PM81 °FScattered clouds.17 mph54%30.04 "Hg10 mi
2:53 PM82 °FScattered clouds.17 mph49%30.04 "Hg10 mi
1:53 PM83 °FScattered clouds.16 mph48%30.05 "Hg10 mi
12:53 PM83 °FScattered clouds.17 mph50%30.07 "Hg10 mi
11:53 AM81 °FScattered clouds.9 mph49%30.09 "Hg10 mi
10:53 AM81 °FScattered clouds.15 mph53%30.11 "Hg10 mi
9:53 AM80 °FScattered clouds.18 mph52%30.11 "Hg10 mi
8:53 AM78 °FScattered clouds.14 mph56%30.12 "Hg10 mi
7:53 AM74 °FLight rain. Scattered clouds.14 mph69%30.11 "Hg10 mi
6:53 AM73 °FPassing clouds.9 mph66%30.10 "Hg10 mi
5:53 AM72 °FPassing clouds.8 mph68%30.08 "Hg10 mi
4:53 AM73 °FPassing clouds.7 mph66%30.06 "Hg10 mi
3:53 AM73 °FPassing clouds.10 mph66%30.05 "Hg10 mi
2:53 AM73 °FClear.7 mph69%30.06 "Hg10 mi
1:53 AM73 °FPassing clouds.13 mph71%30.08 "Hg10 mi
12:53 AM73 °FPassing clouds.13 mph71%30.10 "Hg10 mi
11:53 PM
Apr 15
73 °FPartly cloudy.13 mph71%30.12 "Hg10 mi
10:53 PM73 °FLight rain. Partly cloudy.15 mph71%30.13 "Hg10 mi
9:53 PM74 °FLight rain. Passing clouds.10 mph69%30.12 "Hg10 mi
Weather by CustomWeather, © 2014

See weather overview